TimeEST,TemperatureF,Dew PointF,Humidity,Sea Level PressureIn,VisibilityMPH,Wind Direction,Wind SpeedMPH,Gust SpeedMPH,PrecipitationIn,Events,Conditions,WindDirDegrees,DateUTC
12:05 AM,34.7,24.1,65,29.91,10.0,Calm,Calm,-,N/A,,Overcast,0,2013-02-05 05:05:00
12:50 AM,34.2,24.4,68,29.90,10.0,Calm,Calm,-,N/A,,Overcast,0,2013-02-05 05:50:00
1:10 AM,33.1,24.4,71,29.90,10.0,Calm,Calm,-,N/A,,Mostly Cloudy,0,2013-02-05 06:10:00
1:30 AM,32.9,24.4,71,29.89,10.0,Calm,Calm,-,N/A,,Mostly Cloudy,0,2013-02-05 06:30:00
1:55 AM,31.8,25.3,77,29.89,10.0,Calm,Calm,-,N/A,,Scattered Clouds,0,2013-02-05 06:55:00
2:15 AM,31.6,26.1,80,29.89,10.0,Calm,Calm,-,N/A,,Mostly Cloudy,0,2013-02-05 07:15:00
2:35 AM,31.6,25.5,78,29.89,10.0,Calm,Calm,-,N/A,,Overcast,0,2013-02-05 07:35:00
2:55 AM,31.1,26.6,83,29.88,10.0,Calm,Calm,-,N/A,,Mostly Cloudy,0,2013-02-05 07:55:00
3:20 AM,31.1,26.4,83,29.88,10.0,Calm,Calm,-,N/A,,Mostly Cloudy,0,2013-02-05 08:20:00
4:00 AM,31.6,26.4,81,29.87,10.0,Calm,Calm,-,N/A,,Overcast,0,2013-02-05 09:00:00
4:20 AM,32.0,26.2,79,29.87,10.0,Calm,Calm,-,N/A,,Overcast,0,2013-02-05 09:20:00
4:45 AM,31.6,26.6,82,29.87,10.0,Calm,Calm,-,N/A,,Scattered Clouds,0,2013-02-05 09:45:00
6:10 AM,33.4,26.4,75,29.88,10.0,North,3.5,-,N/A,,Overcast,360,2013-02-05 11:10:00
6:30 AM,33.8,26.4,74,29.89,10.0,NNE,3.5,-,N/A,,Overcast,30,2013-02-05 11:30:00
6:50 AM,34.0,26.4,74,29.89,10.0,North,3.5,-,N/A,,Overcast,10,2013-02-05 11:50:00
7:15 AM,34.7,27.1,74,29.91,10.0,Calm,Calm,-,N/A,,Overcast,0,2013-02-05 12:15:00
7:55 AM,35.1,28.8,78,29.92,10.0,Calm,Calm,-,N/A,,Overcast,0,2013-02-05 12:55:00
8:15 AM,35.2,29.1,78,29.91,10.0,Calm,Calm,-,N/A,,Overcast,0,2013-02-05 13:15:00
8:40 AM,35.6,29.7,79,29.93,10.0,Calm,Calm,-,N/A,,Mostly Cloudy,0,2013-02-05 13:40:00
9:00 AM,35.6,30.2,81,29.93,10.0,North,4.6,-,N/A,,Overcast,10,2013-02-05 14:00:00
9:20 AM,36.0,30.4,80,29.94,10.0,Calm,Calm,-,N/A,,Overcast,0,2013-02-05 14:20:00
9:40 AM,37.0,30.9,79,29.94,10.0,NE,4.6,-,N/A,,Overcast,40,2013-02-05 14:40:00
10:05 AM,37.4,30.6,76,29.94,10.0,North,3.5,-,N/A,,Overcast,350,2013-02-05 15:05:00
10:25 AM,37.4,30.2,75,29.94,10.0,Calm,Calm,-,N/A,,Overcast,0,2013-02-05 15:25:00
10:45 AM,37.9,30.2,74,29.94,10.0,Calm,Calm,-,N/A,,Overcast,0,2013-02-05 15:45:00
11:05 AM,38.5,30.2,72,29.93,10.0,East,3.5,-,N/A,,Scattered Clouds,90,2013-02-05 16:05:00
11:50 AM,38.8,30.0,71,29.93,10.0,Calm,Calm,-,N/A,,Scattered Clouds,0,2013-02-05 16:50:00
12:10 PM,39.2,29.7,69,29.92,10.0,NNE,4.6,-,N/A,,Scattered Clouds,20,2013-02-05 17:10:00
12:30 PM,39.6,29.5,67,29.91,10.0,Calm,Calm,-,N/A,,Scattered Clouds,0,2013-02-05 17:30:00
12:55 PM,40.3,28.6,63,29.90,10.0,East,3.5,-,N/A,,Overcast,100,2013-02-05 17:55:00
1:15 PM,40.5,28.9,64,29.89,10.0,Calm,Calm,-,N/A,,Overcast,0,2013-02-05 18:15:00
1:55 PM,41.5,29.1,61,29.88,10.0,Calm,Calm,-,N/A,,Scattered Clouds,0,2013-02-05 18:55:00
2:20 PM,41.7,28.8,60,29.87,10.0,NNE,4.6,-,N/A,,Clear,20,2013-02-05 19:20:00
2:40 PM,41.9,28.9,60,29.86,10.0,ENE,3.5,-,N/A,,Clear,60,2013-02-05 19:40:00
3:00 PM,41.9,29.3,61,29.87,10.0,NE,3.5,-,N/A,,Scattered Clouds,50,2013-02-05 20:00:00
3:20 PM,41.9,28.6,59,29.88,10.0,Calm,Calm,-,N/A,,Scattered Clouds,0,2013-02-05 20:20:00
3:45 PM,42.1,29.3,61,29.87,10.0,ESE,3.5,-,N/A,,Scattered Clouds,110,2013-02-05 20:45:00
4:05 PM,42.1,29.1,60,29.88,10.0,Calm,Calm,-,N/A,,Scattered Clouds,0,2013-02-05 21:05:00
4:25 PM,41.7,28.4,59,29.87,10.0,Calm,Calm,-,N/A,,Clear,0,2013-02-05 21:25:00
4:45 PM,41.2,28.6,61,29.88,10.0,NNE,3.5,-,N/A,,Clear,30,2013-02-05 21:45:00
5:10 PM,40.6,28.4,62,29.88,10.0,NE,3.5,-,N/A,,Clear,50,2013-02-05 22:10:00
5:30 PM,40.1,28.8,64,29.88,10.0,East,3.5,-,N/A,,Clear,80,2013-02-05 22:30:00
5:50 PM,39.4,28.4,65,29.89,10.0,Calm,Calm,-,N/A,,Clear,0,2013-02-05 22:50:00
6:10 PM,38.7,28.4,67,29.89,10.0,Calm,Calm,-,N/A,,Clear,0,2013-02-05 23:10:00
6:35 PM,37.8,28.0,68,29.89,10.0,Calm,Calm,-,N/A,,Clear,0,2013-02-05 23:35:00
6:55 PM,37.4,27.3,67,29.90,10.0,Calm,Calm,-,N/A,,Clear,0,2013-02-05 23:55:00
7:15 PM,35.6,28.2,75,29.91,10.0,Calm,Calm,-,N/A,,Mostly Cloudy,0,2013-02-06 00:15:00
7:40 PM,36.9,28.4,71,29.90,10.0,Calm,Calm,-,N/A,,Overcast,0,2013-02-06 00:40:00
8:00 PM,37.4,28.9,71,29.90,10.0,Calm,Calm,-,N/A,,Overcast,0,2013-02-06 01:00:00
8:20 PM,36.9,30.2,77,29.90,10.0,Calm,Calm,-,N/A,,Overcast,0,2013-02-06 01:20:00
8:40 PM,36.7,30.2,77,29.91,10.0,Calm,Calm,-,N/A,,Overcast,0,2013-02-06 01:40:00
9:05 PM,36.0,30.6,81,29.92,10.0,Calm,Calm,-,N/A,,Overcast,0,2013-02-06 02:05:00
9:25 PM,35.6,31.1,84,29.92,10.0,Calm,Calm,-,N/A,,Overcast,0,2013-02-06 02:25:00
9:45 PM,35.8,30.4,81,29.93,10.0,Calm,Calm,-,N/A,,Overcast,0,2013-02-06 02:45:00
10:00 PM,34.7,30.9,86,29.94,10.0,Calm,Calm,-,N/A,,Overcast,0,2013-02-06 03:00:00
10:30 PM,35.2,31.8,87,29.94,10.0,Calm,Calm,-,N/A,,Overcast,0,2013-02-06 03:30:00
10:50 PM,36.1,30.9,81,29.94,10.0,North,3.5,-,N/A,,Overcast,350,2013-02-06 03:50:00
11:10 PM,36.0,31.1,82,29.95,10.0,Calm,Calm,-,N/A,,Overcast,0,2013-02-06 04:10:00
11:30 PM,36.0,31.6,84,29.95,10.0,Calm,Calm,-,N/A,,Overcast,0,2013-02-06 04:30:00
11:55 PM,35.4,32.0,87,29.95,10.0,Calm,Calm,-,N/A,,Overcast,0,2013-02-06 04:55:00